Temp
18 18 19 18 18 18 18 18 18 18 18 19 19 19 20 20 20 20 19 19 18 18 18 18 18 18 18 17 18 17 17 17 18
18 18 18 18 18 19 18 18 18 18 18 19 19 19 19 20 19 19 19 18 18 18 18 18 18 18 18 18 18 18 17 17 17
17 17 18 20 20 19 19 18 18 18 18 18 18 18 19 19 19 18 18 18 18 18 18 19 18 18 18 18 17 17 16 16 16
16 16 17 18 18 17 17 17 17 18 18 18 18 19 19 19 18 18 18 18 18 18 18 18 18 18 18 17 17 17 16 16 16
15 15 16 17 17 17 17 17 17 17 18 18 18 19 19 18 17 17 17 18 18 18 18 18 17 18 18 17 17 17 17 17 16
15 15 16 16 15 16 16 16 16 16 17 17 18 18 18 17 16 16 17 17 18 18 18 18 18 18 17 18 17 17 17 16 16
15 15 15 15 15 15 15 15 15 15 16 17 17 18 17 16 15 16 16 16 16 17 17 17 17 17 17 17 17 17 17 16 16
16 16 16 15 15 15 15 14 14 15 15 16 16 16 17 16 15 16 16 15 16 16 16 16 16 16 17 17 17 17 17 16 16
14 14 14 14 15 14 15 15 15 15 15 15 15 15 15 16 15 15 16 16 15 15 15 16 16 17 17 17 17 16 16 16 16
12 11 12 12 14 14 14 15 14 14 14 14 15 15 14 14 14 14 15 16 16 16 15 14 15 16 16 16 16 16 16 15 16
11 11 11 11 11 13 13 13 13 13 14 14 14 14 14 13 13 14 14 14 15 16 16 15 14 14 14 15 15 15 15 15 15
9 10 10 10 11 12 12 13 13 13 14 14 14 14 13 13 13 13 13 13 14 15 15 15 15 14 14 13 14 13 14 15 15
8 8 8 9 10 12 11 12 14 14 14 14 14 14 14 13 13 12 12 12 13 13 14 14 14 14 13 13 13 13 14 14 14
7 7 7 8 9 9 10 11 12 13 13 14 14 13 13 13 13 12 12 12 13 12 13 13 13 13 13 12 12 12 13 14 14
4 5 6 7 8 8 9 10 11 11 11 13 14 13 13 13 12 12 11 11 11 11 12 12 12 12 12 11 11 11 11 12 12
3 3 4 4 5 6 7 8 10 10 10 13 13 13 12 13 12 12 11 11 11 11 11 11 11 11 11 10 11 11 10 10 11
2 1 1 2 3 3 4 5 8 9 7 9 12 14 13 12 12 11 11 11 11 11 11 11 10 10 9 9 10 10 8 9 10
1 0 0 -0 1 1 2 3 4 6 6 6 8 12 10 11 12 12 11 10 10 10 10 10 10 9 8 8 9 8 6 8 8
-1 -2 -1 -2 -1 -0 1 2 2 4 4 6 5 5 5 7 11 12 9 8 8 8 8 8 8 7 6 5 6 7 5 6 6
-3 -3 -3 -3 -2 -1 -1 0 1 1 3 2 2 3 4 3 5 7 7 5 6 6 7 7 6 5 4 3 4 5 3 4 4
Height
840 840 838 838 838 837 837 838 837 837 836 836 835 835 835 835 835 836 837 838 838 840 839 839 840 841 842 843 843 843 843 843 842
842 843 842 840 839 839 840 841 841 840 839 839 838 838 838 838 838 837 840 842 842 844 843 842 844 844 845 846 847 847 846 846 845
846 844 843 840 840 841 843 844 845 845 843 843 841 841 841 842 840 841 843 845 845 847 847 846 847 848 848 848 849 850 850 849 849
848 847 848 847 848 848 849 849 847 846 846 846 846 846 845 845 844 845 845 847 849 848 849 849 850 851 851 852 851 853 853 852 853
852 852 851 849 850 851 850 849 849 849 848 849 849 848 849 848 848 849 849 850 851 851 850 851 852 853 854 854 855 855 855 856 855
856 855 854 854 853 853 853 852 851 852 852 852 851 851 853 853 853 853 852 852 852 853 853 853 854 854 855 856 858 858 856 857 857
859 858 858 857 857 857 856 855 853 853 853 854 853 856 856 857 856 856 856 855 854 855 855 856 856 856 856 858 859 859 859 860 860
861 861 861 861 860 860 859 857 856 856 856 856 856 859 859 861 860 860 859 858 858 857 858 857 858 859 859 860 861 860 861 861 862
863 862 862 862 863 862 861 861 859 858 858 858 859 860 862 863 863 863 862 862 861 861 861 860 861 861 861 861 862 863 863 863 863
865 865 864 864 863 865 864 863 863 862 863 862 862 863 863 864 865 866 865 865 865 864 864 863 863 863 863 864 864 865 865 865 865
866 866 866 866 866 867 866 865 865 865 865 866 866 865 866 867 867 867 867 867 866 866 866 866 866 866 865 864 865 866 866 866 866
868 869 869 868 868 867 869 868 868 867 867 867 868 868 867 868 869 868 869 869 868 868 869 868 867 868 868 868 867 866 866 866 867
870 870 870 871 871 869 869 869 870 869 869 869 869 869 869 869 870 870 869 870 871 869 869 869 869 869 870 871 870 868 868 867 867
872 872 872 873 873 873 871 872 872 872 871 870 870 870 870 870 870 870 871 871 870 871 871 870 871 871 871 871 870 870 868 868 867
873 873 873 874 874 874 873 873 874 873 872 871 871 870 871 871 871 872 873 872 871 872 873 873 874 873 872 871 871 870 869 868 867
873 874 874 875 876 876 875 875 876 874 871 871 870 870 871 872 874 873 873 874 874 875 875 874 875 874 874 871 871 870 870 869 869
875 875 876 877 878 877 877 877 878 878 876 876 872 868 873 874 874 874 874 876 876 877 877 877 876 876 875 872 871 871 870 871 869
878 878 879 880 881 882 882 881 880 880 880 879 879 874 877 874 873 874 875 878 878 877 877 877 878 877 875 873 872 871 871 870 870
882 883 883 884 885 885 885 885 884 883 883 882 883 884 884 882 876 874 875 878 879 879 879 879 878 877 876 876 874 872 872 871 869
888 888 888 887 888 888 889 888 887 887 886 886 886 886 886 886 887 882 878 878 879 880 880 878 877 876 877 877 873 873 871 871 869
Wind_Speed
15 13 14 16 15 17 17 15 15 15 14 14 15 14 10 11 13 14 14 13 13 14 16 17 16 16 16 17 17 16 16 16 16
12 13 11 13 15 15 17 15 15 14 15 14 16 15 13 12 12 12 14 12 13 12 14 16 16 15 16 15 14 13 13 15 15
12 13 14 14 12 12 11 12 12 14 15 17 16 14 13 14 15 14 12 12 11 11 12 13 14 14 13 13 13 11 13 14 14
12 14 14 12 10 9 10 11 12 14 15 18 20 19 18 17 18 15 12 7 7 11 12 14 14 13 12 12 12 12 12 12 12
13 12 12 12 10 8 10 12 14 14 15 16 19 17 17 18 21 17 12 7 6 6 8 10 13 13 11 11 10 10 10 7 9
12 12 11 12 11 12 11 11 12 12 15 16 18 17 17 17 17 16 13 10 7 6 7 10 12 12 10 10 7 8 8 8 8
10 13 13 13 14 14 14 15 10 10 11 12 19 15 15 17 17 20 16 16 13 10 7 7 8 8 8 6 7 7 7 7 7
7 8 7 7 9 9 11 11 12 16 14 15 14 15 14 14 18 19 20 20 18 15 12 10 10 10 9 7 6 8 5 6 6
10 7 5 7 8 10 11 13 17 19 19 17 16 15 14 11 12 17 18 19 18 20 20 14 8 10 8 7 7 7 5 5 6
9 10 10 11 8 9 10 10 11 13 14 15 16 15 14 10 9 9 15 16 15 16 19 20 20 9 8 7 6 4 5 5 5
10 10 10 9 9 10 9 10 10 9 10 10 11 13 12 10 8 7 8 11 12 13 14 16 18 19 20 18 9 8 8 8 8
10 9 10 10 8 9 8 11 10 10 9 9 9 9 9 8 8 6 6 7 10 10 10 13 14 15 17 16 14 18 16 8 8
11 10 11 10 9 7 8 8 6 7 7 8 8 8 6 7 6 6 6 7 9 10 11 11 12 13 16 17 17 14 15 15 15
13 12 12 11 10 10 10 8 8 7 7 7 6 5 6 7 7 6 7 10 11 10 11 13 13 13 13 16 18 17 14 13 14
12 12 13 13 12 12 12 10 9 10 8 7 5 3 4 8 11 10 10 11 12 12 13 12 13 16 14 16 16 17 16 16 16
12 11 12 13 14 14 14 9 9 12 12 6 7 6 6 8 7 11 13 14 16 16 15 14 14 14 14 15 15 16 19 20 20
14 13 13 13 12 14 14 14 8 9 15 7 6 1 7 8 8 10 12 14 13 13 13 14 15 15 14 13 15 17 22 21 21
16 16 15 14 14 14 15 15 14 9 9 13 7 2 2 11 5 5 8 12 14 14 12 13 11 13 15 14 16 19 21 24 23
18 17 17 15 14 15 14 14 13 12 12 4 11 10 6 3 3 1 14 12 13 14 12 13 13 13 12 15 16 18 21 23 24
18 18 17 16 16 15 15 15 15 15 12 12 10 6 8 10 4 4 13 14 15 11 15 10 10 11 14 17 21 21 23 23 25
Wind_Direction
67 70 64 60 58 61 62 64 66 69 72 79 86 88 69 82 88 87 90 90 89 84 91 89 88 89 86 83 82 80 79 79 87
62 67 61 59 60 56 58 68 62 64 68 71 80 83 73 74 81 87 88 90 90 88 87 89 91 90 89 87 84 80 79 78 75
66 64 57 49 38 48 48 64 73 70 68 68 73 74 72 68 69 74 87 96 94 90 86 89 90 86 87 91 90 82 78 76 77
72 64 68 75 68 70 84 97 95 86 78 72 70 68 62 63 63 62 65 94 97 88 85 88 86 82 79 80 83 82 74 70 70
77 63 70 71 79 74 79 86 84 84 78 73 68 57 54 54 57 48 53 80 105 107 95 95 87 79 71 67 75 83 80 74 60
64 72 74 80 75 81 80 84 83 77 73 79 67 61 57 53 51 52 50 66 78 102 113 121 107 92 77 61 57 49 54 62 65
72 59 59 71 72 69 76 72 61 68 66 81 78 62 63 58 60 60 56 58 64 77 86 95 89 95 98 91 85 52 45 60 62
50 60 54 52 66 65 64 67 75 73 74 68 74 65 67 63 57 62 64 59 55 61 68 72 70 76 84 89 77 50 48 57 55
40 51 59 74 53 62 66 61 66 73 68 67 64 70 66 68 57 59 61 57 57 55 53 51 61 53 64 59 35 40 18 42 44
48 41 36 62 72 51 55 64 61 56 57 54 53 55 63 53 68 58 59 55 48 50 51 50 50 57 51 51 33 4 16 29 29
49 42 46 48 53 44 46 57 63 60 57 53 49 45 48 45 47 44 44 47 49 47 48 49 48 47 51 56 51 41 29 14 6
47 48 42 30 53 79 49 44 55 50 49 45 39 38 38 40 35 44 40 58 34 46 46 51 48 44 45 35 34 42 45 21 3
45 45 39 33 26 55 44 54 37 29 30 23 17 24 27 32 35 29 48 52 65 33 34 41 44 43 43 40 38 27 26 23 28
42 41 37 35 34 26 32 26 40 31 21 6 4 30 35 42 38 43 45 38 51 56 34 36 29 36 38 35 33 30 19 5 3
50 43 42 37 37 31 29 31 35 26 4 344 359 20 65 59 49 61 66 57 61 56 51 49 35 29 32 32 28 22 16 6 359
53 44 41 44 41 33 29 28 28 27 13 358 342 96 102 47 67 74 65 58 53 48 44 43 41 42 23 25 23 20 15 13 9
55 52 42 43 37 34 34 35 28 39 30 5 309 137 137 48 84 74 66 51 46 39 38 39 36 38 35 15 22 21 20 15 9
60 54 53 46 44 37 33 31 32 20 27 37 15 334 359 337 128 97 63 40 28 30 25 25 23 42 24 5 15 15 15 15 12
60 56 52 50 47 42 37 36 37 40 31 41 33 48 37 359 321 57 59 31 19 16 11 10 51 46 29 360 4 5 5 7 4
54 54 51 50 48 44 42 42 44 45 47 43 23 29 50 30 351 310 348 354 353 349 9 22 32 22 15 8 355 2 3 1 356